STARLINK-34840

Last updated on Wed Dec 10 2025 00:02:05 GMT+0000 (Coordinated Universal Time)

1 66406U 25257AC 25343.46887475 .00126269 00000+0 22382-2 0 9993 2 66406 53.1580 279.3888 0001259 122.2411 237.8720 15.49355554 5810
UTC large
Height (km)
Speed (km/s)
/
Latitude / Longitude
Inclination (degrees)
Orbital Period (minutes)
Azimuth
Elevation
Range (km)
Doppler Factor

Next 0 passes for location: London (51.5072 / 0.1276)

Sorry there are no passes over London.